Regional Weather Roundup
Issued by NWS Charleston, SC

Current Version | Previous Version | Graphics & Text | Print | Product List | Glossary On
Versions: 1 2 3 4 5 6 7 8 9 10 11 12 13 14 15 16 17 18 19 20 21 22 23 24 25 26 27 28 29 30 31 32 33 34 35 36 37 38 39 40 41 42 43 44 45 46 47 48 49 50
000 ASUS42 KCHS 240112 RWRCHS REGIONAL WEATHER ROUNDUP NATIONAL WEATHER SERVICE CHARLESTON SC 800 PM EST THU NOV 23 2017 NOTE: "FAIR" INDICATES FEW OR NO CLOUDS BELOW 12,000 FEET WITH NO SIGNIFICANT WEATHER AND/OR OBSTRUCTIONS TO VISIBILITY. NOT ALL STATIONS ARE QUALITY CONTROLLED. USE DATA WITH CAUTION... ESPECIALLY DEWPOINT OBSERVATIONS. SCZ027-030-031-034>040-042>050-240200- ...SOUTHEAST SOUTH CAROLINA... CITY SKY/WX TMP DP RH WIND PRES REMARKS N CHARLESTON CLOUDY 45 44 97 N9 30.00S WATERFRONT PRK N/A 47 45 93 N9 29.85S JOHNS ISLAND FAIR 46 45 93 N7G14 30.00S PINOPOLIS N/A 46 45 93 NE13 29.94S MONCKS CORNER FAIR 45 41 87 NE5 30.00F SUMMERVILLE CLOUDY 45 43 93 CALM 30.02F BEAUFORT MCAS CLOUDY 48 46 93 N10 30.01R BEAUFORT ARPT CLOUDY 46 45 93 N7 30.01R HILTON HEAD IS CLOUDY 48 46 93 N12 30.01R WALTERBORO CLOUDY 45 41 87 CALM 30.02S ALLENDALE CLOUDY 46 39 76 CALM 30.02R ...SOUTHERN MIDLANDS AND PEE DEE... CITY SKY/WX TMP DP RH WIND PRES REMARKS GEORGETOWN DRIZZLE 45 43 93 NE8 30.02S KINGSTREE FAIR 45 36 70 CALM 30.03S ORANGEBURG CLOUDY 46 36 68 NE6 30.02S BARNWELL N/A 46 39 76 CALM 30.03R AIKEN FAIR 43 37 81 CALM 30.05S MANNING FAIR 45 36 70 MISG 30.02S COLUMBIA PTCLDY 47 40 76 CALM 30.03S SUMTER PTCLDY 43 35 73 NE5 30.02S FLORENCE CLOUDY 45 36 70 NE7 30.05F MYRTLE BEACH CLOUDY 47 39 74 NE9 30.03F N MYRTLE BEACH CLOUDY 47 39 74 NE9 30.02F $$ GAZ063-065-086>088-099>101-113>116-118-119-134>141-150-240200- ...SOUTHEAST GEORGIA... CITY SKY/WX TMP DP RH WIND PRES REMARKS SAVANNAH ARPT CLOUDY 48 46 93 N7 30.01R HUNTER AAF CLOUDY 49 46 92 N6 29.97S FORT STEWART CLOUDY 49 46 90 N7 29.97S STATESBORO CLOUDY 50 40 67 NE5 30.01S SYLVANIA CLOUDY 50 43 78 NE8 30.02S CLAXTON CLOUDY 52 46 79 N6 30.01R ...CSRA...CENTRAL AND FAR SOUTHEAST GEORGIA... CITY SKY/WX TMP DP RH WIND PRES REMARKS THOMSON CLEAR 42 40 91 CALM 30.08R AUGUSTA-BUSH MOCLDY 44 41 89 CALM 30.03R AUGUSTA-DANIEL CLEAR 51 40 65 E5 30.03R SWAINSBORO FAIR 48 45 87 NE3 30.02S VIDALIA CLOUDY 52 46 82 NE7 30.00S EASTMAN CLOUDY 55 39 54 E6 30.02S HAZLEHURST CLOUDY 55 43 63 NE3 29.98S ALMA CLOUDY 54 50 86 VRB3 29.97S WAYCROSS CLOUDY 54 51 90 NE9 29.97R JESUP CLOUDY 54 50 87 CALM 29.98S BAXLEY CLOUDY 52 50 93 NE10 29.98S BRUNSWICK CLOUDY 54 50 87 N9G16 29.96S SAINT SIMONS CLOUDY 55 54 96 N13 29.94S $$ SCZ027-028-034-036>038-045-046-048>050-GAZ119-141-240200- ...LAKE AND SUPPLEMENTAL COASTAL OBSERVATIONS... STATION/POSITION TIME TEMP WIND PRES WAVE SWELL AIR SEA DIR/SP/G HT/PER HT/PER/DIR (UTC) (F) (DEG/KT/KT) (MB) (FT/S) (FT/S/D) WINYAH BAY NOT AVBL LAKE MURRAY 0020 50 40/ 1/ 3 1016.3S ACE BASIN NERRS 2345 46 10/ 4 1016.0 FORT PULASKI 0048 49 61 20/ 9/ 11 1015.8R SAPELO ISLAND 0000 54 360/ 12 1014.0 $$ ANZ835-935-AMZ111-154-330-350-352-354-370-450-454-472-240200- ...C-MAN AND BUOY OBSERVATIONS... STATION/POSITION TIME TEMP WIND PRES WAVE SWELL AIR SEA DIR/SP/G HT/PER HT/PER/DIR (UTC) (F) (DEG/KT/KT) (MB) (FT/S) (FT/S/D) BUOY 41004 0050 64 75 40/ 21/ 27 1013.4F 7/ 6 3/110/ 9 BUOY 41008 2350 61 67 30/ 21/ 25 1013.0 6/ 6 2/120/ 9 FOLLY BEACH CMAN 0000 49 10/ 13/ 16 1015.8F CAPERS NEARSHORE 0008 48 61 40/ 17/ 25 1014.4F FRIPP NEARSHORE 0008 49 61 30/ 12/ 23 1015.0R STATION/POSITION TIME TEMP WIND PRES WAVE SWELL AIR SEA DIR/SP/G HT/PER HT/PER/DIR (UTC) (F) (DEG/KT/KT) (MB) (FT/S) (FT/S/D) 5E ST. MARYS GA 0030 67 N/A 7/ 6 FRYING PAN BUOY 0050 59 72 50/ 17/ 21 1015.3F 6/ 9 3/120/ 9 BUOY 41025 0050 57 71 20/ 10/ 16 1017.5F 5/ 9 5/120/ 9 CAPE LOOKOUT NC 0000 40/ 15/ 16 1017.6F BUOY 41002 2350 70 77 90/ 19/ 23 1012.5 8/ 8 5/100/11 BUOY 41010 NOT AVBL ST AUGUSTINE FL 0000 69 69 20/ 21/ 24 1010.7S $$

USA.gov is the U.S. government's official web portal to all federal, state and local government web resources and services.